Tracking 27405 objects as of 1-Jun-2023
HD Live streaming from Space Station
objects crossing your sky now

GONETS M 20

Track GONETS M 20 now!
10-day predictions


NORAD ID: 47227
Int'l Code: 2020-091A
Perigee: 1,484.4 km
Apogee: 1,518.6 km
Inclination: 82.5 °
Period: 115.9 minutes
Semi major axis: 7872 km
RCS: Unknown
Launch date: December 3, 2020
Source: Commonwealth of Independent States (former USSR) (CIS)
Launch site: PLESETSK MISSILE AND SPACE COMPLEX (PKMTR)
Your satellite tracking list
Your tracking list is empty




NASA's NSSDC Master Catalog

Two Line Element Set (TLE):
1 47227U 20091A   23152.09524371  .00000017  00000-0  48927-4 0  9990
2 47227  82.5030 273.6551 0021739  90.0082 270.3489 12.42890245113052
Source of the keplerian elements: AFSPC